Miscellaneous Local Product
Issued by NWS Hastings, NE

Home | Current Version | Previous Version | Text Only | Print | Product List | Glossary On
Versions: 1 2 3 4 5 6 7 8 9 10 11 12 13 14 15 16 17 18 19 20 21 22 23 24 25 26 27 28 29 30 31 32 33 34 35 36 37 38 39 40 41 42 43 44 45 46 47 48 49 50
000
AXUS43 KGID 302102
MISGRI

GID CWA HOURLY WEATHER ROUNDUP
NATIONAL WEATHER SERVICE HASTINGS NE
400 PM CDT SAT MAY 30 2015

NOTE: "FAIR" INDICATES FEW OR NO CLOUDS BELOW 12,000 FEET WITH NO
SIGNIFICANT WEATHER AND/OR OBSTRUCTIONS TO VISIBILITY.

...SOUTH CENTRAL NEBRASKA...

CITY           SKY/WX    TMP DP  RH WIND       PRES   REMARKS
GRAND ISLAND   SUNNY     66  40  38 N9        30.23S
HASTINGS       SUNNY     65  45  48 N12       30.22F
KEARNEY        SUNNY     64  43  45 N8        30.23F
ORD            SUNNY     64  38  38 NE12      30.23S
YORK           SUNNY     66  39  37 NE13G20   30.21S
AURORA         SUNNY     68  36  30 NE7G16    30.21F
LEXINGTON      SUNNY     64  38  38 NE6       30.24F
HOLDREGE       SUNNY     63  42  45 NE6       30.23F
HEBRON         MOSUNNY   68  43  41 NE9G18    30.19F

...NEBRASKA PANHANDLE...

CITY           SKY/WX    TMP DP  RH WIND       PRES   REMARKS
CHADRON        SUNNY     67  48  50 S12       30.18F
ALLIANCE       SUNNY     64  48  56 SE12G18   30.22F
SCOTTSBLUFF    SUNNY     69  52  54 SE10G24   30.19F
SIDNEY         SUNNY     62  48  60 S6        30.25F

...WESTERN AND NORTH CENTRAL NEBRASKA...

CITY           SKY/WX    TMP DP  RH WIND       PRES   REMARKS
VALENTINE      SUNNY     61  32  33 NE8       30.27F
AINSWORTH      SUNNY     60  37  42 N5        30.27F
ONEILL         SUNNY     60  44  54 N10       30.26F
BROKEN BOW     SUNNY     65  34  31 MISG      30.24F
IMPERIAL       SUNNY     63  37  38 CALM      30.25F
NORTH PLATTE   SUNNY     64  33  31 VRB6      30.26F
MCCOOK         SUNNY     65  35  33 E8G17     30.25F

...EASTERN NEBRASKA...

CITY           SKY/WX    TMP DP  RH WIND       PRES   REMARKS
NORFOLK        SUNNY     66  40  38 N15       30.22S
SO SIOUX CITY  SUNNY     66  41  40 NE15      30.21S
TEKAMAH        SUNNY     70  41  34 NE17G25   30.18S
COLUMBUS       SUNNY     68  37  32 NE10G20   30.22S
ALBION         SUNNY     64  43  47 N12G18    30.23S
OMAHA EPPLEY   MOSUNNY   69  45  41 N13G18    30.16F
OFFUTT AFB     SUNNY     67  47  47 VRB7      30.16F
MILLARD        CLOUDY    66  45  46 N8        30.18S
LINCOLN        MOSUNNY   69  44  40 N15       30.19S
NEBRASKA CITY  CLOUDY    64  46  53 N12G18    30.16S
BEATRICE       CLOUDY    65  47  52 N15       30.18S
FALLS CITY     CLOUDY    64  53  67 N12       30.14F

...NORTHERN KANSAS...

CITY           SKY/WX    TMP DP  RH WIND       PRES   REMARKS
GOODLAND       SUNNY     64  46  52 MISG      30.25F
HILL CITY      SUNNY     67  38  34 VRB7      30.23F
NORTON         CLEAR     66  30  26 N10G17    30.23F
PHILLIPSBURG   SUNNY     68  45  42 N6        30.23S
SMITH CENTER   MOSUNNY   66  50  55 N12       30.21F
HAYS           SUNNY     66  43  42 N12       30.22S
RUSSELL        SUNNY     67  49  52 N14       30.19F
CONCORDIA      PTSUNNY   65  52  62 N12       30.19S
SALINA         CLOUDY    65  52  62 N13       30.18F
TOPEKA         CLOUDY    62  54  74 NW10      30.14F



USA.gov is the U.S. government's official web portal to all federal, state and local government web resources and services.